Location: Unnamed
(47.6264°N, 122.3366°W)
Time: 06:09:40
(UTC-07:00)

UPPER FREE FLYER - Visible Passes

Search period start: 19 June 2019 00:00
Search period end: 29 June 2019 00:00
Orbit: 571 x 590 km, 97.7° (Epoch: 18 June)

Date Brightness Start Highest point End Pass type
(mag) Time Alt. Az. Time Alt. Az. Time Alt. Az.
19 Jun ? 22:01:41 10° SE 22:05:09 27° ENE 22:08:41 10° N visible
19 Jun ? 23:37:45 16° SSW 23:40:25 30° W 23:44:06 10° NNW visible
20 Jun ? 22:06:39 10° SE 22:10:16 31° ENE 22:13:55 10° N visible
20 Jun ? 23:42:55 15° SW 23:45:35 27° W 23:49:09 10° NW visible
21 Jun ? 22:11:46 11° SE 22:15:22 34° ENE 22:19:08 10° N visible
21 Jun ? 23:48:06 14° SW 23:50:46 24° W 23:54:10 10° NW visible
22 Jun ? 22:16:57 12° SE 22:20:29 38° ENE 22:24:20 10° N visible
22 Jun ? 23:53:18 12° SW 23:55:57 21° W 23:59:10 10° NW visible
23 Jun ? 22:22:08 13° SE 22:25:35 43° ENE 22:29:32 10° N visible
23 Jun ? 23:58:29 11° SW 00:01:08 19° W 00:04:09 10° NW visible
24 Jun ? 22:27:20 14° SE 22:30:43 49° ENE 22:34:44 10° N visible
25 Jun ? 00:03:41 10° SW 00:06:19 17° W 00:09:06 10° NW visible
25 Jun ? 22:32:31 15° SSE 22:35:50 55° ENE 22:39:54 10° N visible
26 Jun ? 00:09:04 10° SW 00:11:32 15° W 00:14:00 10° NW visible
26 Jun ? 22:37:43 16° SSE 22:40:58 63° ENE 22:45:05 10° N visible
27 Jun ? 00:14:38 10° WSW 00:16:44 14° W 00:18:50 10° WNW visible
27 Jun ? 22:42:55 16° SSE 22:46:06 72° ENE 22:50:15 10° N visible
28 Jun ? 00:20:18 10° WSW 00:21:56 12° W 00:23:34 10° WNW visible
28 Jun ? 22:48:07 17° SSE 22:51:14 81° ENE 22:55:25 10° NNW visible
